Location: Unspecified
(0.0000°N, 0.0000°E)
Time: 22:39:39
(UTC+00:00)

ITUPSAT 1 - Visible Passes

Search period start: 02 July 2020 00:00
Search period end: 12 July 2020 00:00
Orbit: 701 x 714 km, 98.6° (Epoch: 02 July)

Date Brightness Start Highest point End Pass type
(mag) Time Alt. Az. Time Alt. Az. Time Alt. Az.
03 Jul ? 04:59:51 10° ESE 05:03:16 20° ENE 05:06:39 10° NNE visible
03 Jul ? 19:01:36 10° WNW 19:02:43 11° WNW 19:03:51 10° W visible
05 Jul ? 04:51:22 10° ESE 04:53:57 15° ENE 04:56:33 10° NE visible
05 Jul ? 18:50:47 10° NW 18:53:25 15° WNW 18:56:05 10° WSW visible
06 Jul ? 05:33:23 10° SSE 05:38:04 55° ENE 05:42:42 10° N visible
07 Jul ? 04:43:42 10° E 04:44:40 11° ENE 04:45:38 10° ENE visible
07 Jul ? 18:40:41 10° NNW 18:44:08 20° WNW 18:47:34 10° SW visible
08 Jul ? 05:24:18 10° SSE 05:28:46 40° ENE 05:33:12 10° N visible
09 Jul ? 18:30:51 10° NNW 18:34:48 26° WNW 18:38:48 10° SW visible
10 Jul ? 05:15:17 10° SE 05:19:27 30° ENE 05:23:35 10° NNE visible
